Precipitable_Water
0.41 0.42 0.41 0.42 0.41 0.40 0.38 0.40 0.42 0.41 0.42 0.42 0.42 0.43 0.44 0.46 0.49 0.43 0.28 0.33 0.40 0.72 0.80 0.86 0.82 0.84 1.23 1.31 1.58 1.70 1.25 1.13 1.20 1.20 1.34 1.65 1.61 1.82 1.93 1.71 1.62 1.60 1.45 1.57 1.66
0.52 0.48 0.48 0.46 0.45 0.44 0.41 0.38 0.40 0.41 0.41 0.42 0.42 0.41 0.43 0.49 0.36 0.28 0.32 0.36 0.53 0.71 0.58 0.54 0.54 0.73 0.96 1.13 1.36 1.37 1.15 1.15 1.40 1.41 1.43 1.56 1.69 1.64 1.71 1.60 1.54 1.64 1.63 1.71 1.61
0.75 0.69 0.57 0.53 0.51 0.48 0.46 0.40 0.39 0.39 0.41 0.42 0.40 0.40 0.45 0.48 0.27 0.37 0.51 0.36 0.62 0.67 0.46 0.49 0.49 0.70 0.79 0.98 1.19 1.32 1.11 1.25 1.35 1.44 1.58 1.57 1.64 1.69 1.66 1.57 1.58 1.47 1.51 1.61 1.51
0.77 0.78 0.75 0.65 0.60 0.53 0.50 0.45 0.40 0.39 0.40 0.43 0.43 0.42 0.47 0.39 0.16 0.48 0.47 0.36 0.55 0.53 0.37 0.37 0.43 0.63 0.72 0.77 1.05 1.10 1.22 1.27 1.27 1.43 1.47 1.50 1.60 1.49 1.67 1.70 1.86 1.71 1.67 1.60 1.47
0.74 0.78 0.79 0.74 0.68 0.64 0.55 0.49 0.41 0.39 0.40 0.45 0.45 0.47 0.40 0.21 0.16 0.56 0.50 0.55 0.59 0.49 0.30 0.30 0.34 0.50 0.55 0.76 0.96 1.09 1.12 1.12 1.13 1.16 1.37 1.56 1.47 1.42 1.49 1.86 1.97 1.73 1.69 1.63 1.55
0.67 0.72 0.74 0.76 0.73 0.65 0.64 0.56 0.44 0.41 0.41 0.46 0.50 0.54 0.29 0.11 0.44 0.57 0.52 0.57 0.51 0.47 0.32 0.32 0.35 0.49 0.52 0.72 0.83 1.08 1.01 0.97 0.94 1.02 1.31 1.34 1.44 1.46 1.58 1.81 1.85 1.69 1.61 1.65 1.57
0.65 0.68 0.69 0.71 0.71 0.71 0.62 0.60 0.51 0.45 0.43 0.47 0.56 0.55 0.36 0.24 0.56 0.57 0.53 0.55 0.43 0.47 0.38 0.29 0.51 0.59 0.69 0.76 0.93 0.93 0.80 0.79 0.91 1.08 1.20 1.40 1.23 1.32 1.61 1.74 1.70 1.63 1.53 1.59 1.57
0.62 0.63 0.65 0.66 0.67 0.67 0.65 0.58 0.52 0.52 0.49 0.51 0.62 0.56 0.29 0.62 0.64 0.51 0.49 0.53 0.55 0.52 0.46 0.33 0.57 0.62 0.68 0.84 0.75 0.67 0.69 0.56 0.88 1.04 1.25 1.24 0.95 1.39 1.60 1.67 1.64 1.56 1.43 1.50 1.55
0.60 0.56 0.57 0.60 0.64 0.65 0.61 0.57 0.56 0.57 0.57 0.57 0.50 0.49 0.35 0.62 0.41 0.40 0.50 0.51 0.56 0.60 0.47 0.44 0.55 0.59 0.57 0.53 0.52 0.57 0.51 0.53 0.53 0.98 1.07 1.02 0.96 1.24 1.50 1.36 1.48 1.39 1.32 1.40 1.49
0.56 0.56 0.54 0.53 0.58 0.60 0.56 0.65 0.72 0.70 0.67 0.64 0.57 0.38 0.40 0.31 0.32 0.31 0.50 0.49 0.51 0.54 0.43 0.46 0.55 0.47 0.47 0.43 0.32 0.41 0.48 0.53 0.48 0.75 0.73 0.74 0.81 1.10 1.35 1.45 1.41 1.42 1.40 1.27 1.34
0.49 0.54 0.54 0.51 0.50 0.53 0.65 0.59 0.48 0.51 0.54 0.29 0.34 0.37 0.39 0.40 0.36 0.28 0.34 0.42 0.57 0.52 0.31 0.42 0.44 0.39 0.44 0.46 0.47 0.48 0.47 0.47 0.53 0.49 0.46 0.52 0.64 0.92 1.16 1.36 1.41 1.45 1.41 1.31 1.26
0.47 0.48 0.51 0.47 0.45 0.59 0.62 0.46 0.48 0.50 0.39 0.40 0.40 0.43 0.43 0.42 0.30 0.35 0.40 0.40 0.44 0.36 0.36 0.38 0.37 0.48 0.52 0.52 0.45 0.41 0.38 0.40 0.46 0.54 0.52 0.62 0.56 0.91 1.07 1.23 1.35 1.42 1.45 1.41 1.32
0.49 0.44 0.43 0.47 0.58 0.57 0.49 0.47 0.60 0.55 0.36 0.39 0.37 0.36 0.32 0.32 0.25 0.32 0.37 0.41 0.40 0.36 0.32 0.32 0.41 0.53 0.46 0.42 0.40 0.36 0.29 0.40 0.42 0.44 0.65 0.61 0.61 0.82 1.03 1.28 1.29 1.42 1.52 1.50 1.44
0.50 0.44 0.42 0.52 0.48 0.52 0.45 0.52 0.54 0.48 0.27 0.32 0.36 0.36 0.34 0.26 0.22 0.36 0.46 0.44 0.41 0.37 0.41 0.39 0.46 0.41 0.39 0.37 0.39 0.30 0.35 0.43 0.40 0.33 0.26 0.61 0.41 0.73 0.91 1.02 1.15 1.30 1.43 1.48 1.49
0.49 0.44 0.41 0.55 0.48 0.45 0.50 0.53 0.48 0.39 0.20 0.29 0.31 0.33 0.28 0.23 0.32 0.34 0.44 0.44 0.38 0.38 0.43 0.36 0.31 0.36 0.33 0.33 0.40 0.31 0.37 0.34 0.39 0.32 0.29 0.34 0.41 0.49 0.99 0.97 1.00 1.15 1.39 1.53 1.55
0.47 0.42 0.37 0.45 0.46 0.43 0.49 0.51 0.40 0.26 0.20 0.27 0.29 0.28 0.27 0.25 0.29 0.30 0.29 0.32 0.39 0.37 0.34 0.33 0.34 0.31 0.34 0.39 0.39 0.39 0.34 0.33 0.31 0.29 0.22 0.26 0.26 0.28 0.51 0.58 0.71 1.04 1.31 1.51 1.52
0.44 0.43 0.36 0.42 0.32 0.46 0.53 0.45 0.30 0.23 0.32 0.27 0.27 0.27 0.26 0.26 0.26 0.27 0.26 0.25 0.22 0.20 0.26 0.28 0.30 0.30 0.29 0.26 0.32 0.33 0.29 0.20 0.18 0.19 0.19 0.28 0.25 0.26 0.39 0.52 0.58 0.66 1.03 1.38 1.52
0.59 0.52 0.50 0.47 0.57 0.61 0.58 0.38 0.26 0.32 0.30 0.34 0.31 0.27 0.25 0.26 0.26 0.27 0.27 0.25 0.29 0.24 0.21 0.22 0.21 0.27 0.31 0.27 0.28 0.29 0.29 0.20 0.13 0.15 0.20 0.28 0.23 0.28 0.40 0.50 0.53 0.67 0.81 1.24 1.44
0.64 0.54 0.54 0.62 0.65 0.66 0.46 0.27 0.30 0.34 0.37 0.31 0.30 0.28 0.29 0.30 0.29 0.30 0.30 0.30 0.31 0.30 0.21 0.20 0.21 0.31 0.31 0.31 0.33 0.32 0.29 0.32 0.23 0.24 0.20 0.23 0.29 0.36 0.48 0.52 0.59 0.61 0.71 0.85 1.20
0.59 0.56 0.56 0.66 0.66 0.59 0.43 0.34 0.38 0.43 0.41 0.37 0.27 0.31 0.26 0.29 0.30 0.29 0.31 0.35 0.33 0.34 0.34 0.26 0.19 0.28 0.30 0.32 0.33 0.32 0.35 0.27 0.26 0.18 0.17 0.21 0.27 0.33 0.45 0.52 0.64 0.66 0.72 0.77 1.01
0.60 0.45 0.56 0.64 0.62 0.45 0.36 0.38 0.42 0.46 0.45 0.37 0.33 0.30 0.30 0.27 0.29 0.28 0.31 0.36 0.38 0.35 0.35 0.31 0.25 0.25 0.27 0.27 0.26 0.30 0.29 0.30 0.30 0.29 0.21 0.19 0.26 0.44 0.52 0.61 0.61 0.69 0.75 0.75 0.83
0.53 0.37 0.58 0.61 0.43 0.39 0.33 0.36 0.37 0.40 0.46 0.41 0.40 0.37 0.32 0.30 0.28 0.27 0.29 0.33 0.39 0.38 0.30 0.32 0.27 0.23 0.26 0.32 0.32 0.29 0.29 0.30 0.26 0.25 0.28 0.29 0.24 0.36 0.41 0.50 0.63 0.66 0.70 0.80 0.88
0.47 0.42 0.56 0.55 0.32 0.32 0.36 0.36 0.37 0.28 0.33 0.33 0.30 0.32 0.37 0.34 0.28 0.31 0.33 0.40 0.39 0.34 0.30 0.32 0.25 0.20 0.24 0.29 0.31 0.27 0.30 0.29 0.31 0.31 0.27 0.25 0.25 0.35 0.43 0.46 0.62 0.71 0.74 0.79 0.90
0.44 0.33 0.38 0.44 0.45 0.36 0.34 0.32 0.30 0.36 0.33 0.35 0.33 0.33 0.29 0.29 0.35 0.33 0.33 0.38 0.39 0.37 0.36 0.32 0.26 0.21 0.17 0.22 0.28 0.26 0.29 0.30 0.28 0.26 0.26 0.26 0.28 0.36 0.45 0.50 0.60 0.74 0.88 0.93 1.03
0.39 0.34 0.39 0.31 0.35 0.37 0.39 0.33 0.27 0.27 0.33 0.34 0.29 0.29 0.26 0.22 0.26 0.29 0.34 0.36 0.37 0.38 0.34 0.28 0.18 0.21 0.22 0.23 0.23 0.23 0.23 0.26 0.27 0.29 0.27 0.27 0.28 0.41 0.55 0.59 0.64 0.76 0.92 0.99 1.06
0.40 0.39 0.39 0.34 0.35 0.32 0.34 0.31 0.28 0.30 0.30 0.29 0.26 0.29 0.28 0.23 0.26 0.24 0.29 0.30 0.28 0.32 0.29 0.31 0.22 0.24 0.19 0.22 0.19 0.16 0.19 0.21 0.21 0.24 0.27 0.32 0.31 0.51 0.62 0.73 0.64 0.70 0.80 0.92 1.06
0.57 0.55 0.40 0.35 0.31 0.27 0.28 0.30 0.30 0.33 0.35 0.36 0.33 0.30 0.29 0.32 0.37 0.37 0.36 0.35 0.34 0.30 0.28 0.27 0.24 0.20 0.14 0.20 0.16 0.11 0.15 0.17 0.19 0.24 0.22 0.21 0.37 0.52 0.55 0.61 0.64 0.68 0.75 0.81 0.93
Wind_Speed
18 17 17 17 16 16 15 15 14 14 13 12 11 11 11 10 11 11 14 15 17 17 18 17 15 14 13 9 8 5 4 0 1 0 2 5 6 10 5 11 8 9 12 18 20
20 19 18 18 17 17 16 15 15 14 14 13 13 12 11 11 11 13 14 17 17 18 18 18 17 16 13 11 9 7 4 3 2 3 3 5 5 10 7 14 9 9 17 19 20
22 22 21 20 19 18 17 16 16 15 14 14 13 12 12 11 11 12 13 17 17 18 18 17 17 16 13 12 11 9 6 5 1 2 3 4 6 8 8 12 9 16 19 19 21
25 25 23 22 21 19 18 17 17 16 15 14 13 12 12 12 11 11 12 18 19 17 16 16 18 17 15 14 14 10 10 9 6 3 0 2 1 6 6 8 9 15 18 20 21
27 27 26 25 23 21 20 19 17 17 15 14 13 13 12 13 15 12 14 16 18 18 18 17 17 17 16 15 14 15 12 10 10 9 6 1 2 4 9 8 10 16 18 18 20
27 26 25 25 24 23 21 20 18 17 16 15 14 13 13 13 13 15 14 16 18 19 18 18 18 17 15 14 14 13 11 12 11 6 7 3 1 3 5 9 12 17 19 19 20
26 24 24 24 24 23 23 21 20 18 16 15 14 14 14 15 13 16 15 15 18 20 18 20 16 16 14 13 12 14 13 10 6 8 7 7 0 0 3 10 14 18 18 19 18
25 24 23 22 22 23 23 23 21 19 18 16 15 14 15 14 14 17 17 15 17 19 17 20 18 16 15 13 11 11 9 7 8 9 11 6 5 3 2 11 16 17 17 19 19
24 23 22 21 21 21 22 21 21 20 18 17 15 15 15 14 15 17 19 17 17 18 20 18 19 17 15 14 11 8 10 9 7 11 8 9 6 9 8 9 15 17 17 19 20
23 23 22 21 19 18 18 17 16 16 17 17 17 15 15 14 14 15 18 18 17 18 18 19 17 15 14 13 14 12 10 9 7 10 9 12 10 13 12 9 11 15 15 18 20
24 23 22 21 18 16 13 13 15 15 18 19 17 17 15 13 14 15 17 18 17 17 18 19 17 17 17 16 15 14 13 12 11 10 10 13 12 17 15 11 11 13 15 17 20
25 24 22 19 16 13 10 10 13 15 16 20 20 19 18 15 14 15 17 16 18 18 18 17 18 18 16 15 15 15 15 13 12 9 7 6 9 14 17 14 12 13 16 17 20
26 23 19 13 11 11 12 10 11 13 14 16 20 19 17 16 15 16 16 16 17 17 19 18 16 18 17 16 15 15 16 15 14 10 6 6 6 12 16 15 14 14 14 16 22
24 20 15 11 7 9 11 10 10 11 10 14 17 18 17 16 15 17 17 16 15 19 18 18 18 18 18 18 16 16 17 17 14 11 10 9 7 11 15 15 16 16 18 16 21
21 17 12 8 5 6 9 9 9 9 7 11 14 15 15 15 15 13 15 15 16 15 16 17 16 18 18 19 17 17 16 17 16 14 10 10 7 8 13 15 17 18 19 19 20
17 14 10 5 5 5 7 7 8 7 7 8 11 13 14 14 13 14 13 14 15 15 15 16 16 15 18 19 19 17 14 13 14 14 12 14 10 10 10 14 12 16 19 20 22
15 11 6 5 4 3 2 7 6 6 6 6 10 11 13 15 14 13 11 11 13 15 16 14 14 15 13 17 15 15 13 13 13 13 15 14 9 12 12 14 15 16 18 21 23
13 9 6 4 4 4 1 6 6 5 6 6 8 9 11 12 12 11 10 11 9 12 14 15 14 12 13 15 17 16 18 16 16 14 15 13 13 9 7 11 14 17 18 19 22
12 8 7 5 5 4 5 6 4 5 4 5 7 7 8 10 12 10 10 9 8 10 14 14 14 13 12 9 16 17 14 16 14 12 11 13 12 9 9 7 9 14 17 21 23
8 7 8 6 3 5 6 6 4 1 3 3 6 6 7 7 10 10 9 9 10 7 12 13 13 12 12 11 10 13 16 14 14 14 15 12 9 12 12 12 10 10 16 22 23
7 6 10 5 3 3 4 3 1 2 2 4 4 5 6 7 8 9 9 9 8 10 8 11 12 14 12 10 11 11 13 15 15 14 15 14 13 11 13 12 11 11 11 19 25
7 6 9 5 3 2 1 3 1 3 2 3 4 5 5 5 5 8 8 8 9 10 10 11 11 11 12 13 12 8 10 13 15 15 14 14 17 12 12 13 12 12 11 12 21
7 7 9 2 1 2 2 3 4 4 2 3 3 3 5 6 7 7 6 6 4 6 8 10 9 10 12 14 12 11 12 12 14 15 14 15 18 14 15 14 12 11 13 14 18
6 6 7 6 1 1 1 3 1 3 3 1 2 3 5 5 5 8 8 5 5 5 4 7 8 11 15 17 17 15 14 13 14 15 18 20 20 18 17 16 15 13 11 9 11
9 7 4 5 5 3 1 2 2 2 1 2 1 1 4 4 7 8 8 8 7 7 6 7 8 9 11 14 15 17 15 15 17 19 19 23 21 21 19 18 17 15 11 10 10
9 7 7 5 4 4 3 3 2 3 2 3 2 4 4 6 8 9 9 9 10 9 8 8 9 9 11 11 12 15 17 19 21 22 24 25 25 24 22 21 18 17 15 13 12
12 9 7 7 6 5 3 2 3 2 3 3 4 5 6 7 9 11 13 13 13 13 12 11 11 10 12 13 13 13 13 13 18 21 25 28 28 26 26 22 21 21 18 16 15
Wind_Direction
314 311 306 301 298 296 293 289 284 280 277 273 267 260 254 248 241 229 224 216 209 205 197 197 200 199 196 203 203 206 206 109 1 20 201 187 184 174 175 161 149 145 148 151 153
311 308 304 301 296 292 289 286 281 277 275 270 263 257 249 245 240 234 223 209 204 199 198 199 201 196 199 205 207 208 207 204 31 76 69 176 205 194 226 169 147 137 145 154 155
307 304 300 297 294 290 286 283 279 275 273 267 259 251 244 241 237 225 218 203 197 197 200 201 198 200 206 207 209 207 209 214 226 71 35 172 223 198 165 173 160 152 154 160 161
304 299 296 292 290 286 283 280 276 271 269 262 254 245 239 233 222 222 207 198 198 197 199 199 200 202 207 210 213 221 225 238 250 249 161 37 16 230 185 170 169 163 161 160 167
305 299 292 287 284 282 279 277 273 267 264 256 248 241 236 230 226 216 201 197 199 201 202 200 199 202 206 212 213 221 236 245 258 259 244 171 354 97 186 178 171 168 166 165 168
307 301 294 287 281 277 275 273 269 263 258 251 243 235 231 227 217 208 202 204 205 203 203 202 204 202 208 213 213 217 236 254 260 214 198 185 149 26 171 190 178 172 170 172 174
310 303 297 288 281 276 271 269 265 258 252 245 236 230 230 221 219 208 207 207 205 204 204 205 203 204 208 215 221 231 243 251 218 195 196 161 208 77 172 171 178 173 174 177 177
307 304 298 295 285 276 271 266 259 253 245 237 229 228 228 218 217 213 212 207 204 204 206 205 204 210 211 220 227 226 224 225 216 206 199 216 227 227 195 199 182 177 180 182 184
308 305 300 294 290 280 270 264 255 244 234 229 227 227 227 224 217 221 209 205 202 205 207 202 202 211 217 216 221 225 216 217 225 213 205 220 207 205 169 139 170 180 183 185 187
315 306 300 295 289 283 273 256 239 231 229 228 229 228 223 216 215 211 206 205 207 201 205 205 206 209 214 211 213 214 218 217 210 205 230 221 231 207 205 191 178 185 187 188 191
322 313 302 292 284 277 268 238 237 234 231 225 223 225 219 225 214 213 205 202 205 205 207 208 208 212 213 212 214 216 217 223 222 237 239 229 227 211 207 206 201 196 198 194 193
325 319 310 293 276 259 244 240 237 235 237 229 225 222 225 221 219 210 203 207 205 210 206 208 214 215 216 215 216 219 223 220 231 227 228 240 237 205 208 212 218 208 204 203 197
330 327 318 299 266 240 240 243 255 235 227 229 216 215 215 211 218 214 208 207 205 209 207 209 216 213 216 223 222 220 217 212 218 246 239 205 215 210 213 216 221 221 214 212 207
332 334 332 313 253 250 238 250 254 222 219 225 211 216 215 215 218 213 206 206 211 209 208 217 220 216 220 221 213 226 214 217 227 225 236 229 225 220 214 219 225 222 218 218 209
332 334 330 334 285 251 249 248 235 205 204 206 204 206 206 208 205 206 208 212 207 206 206 218 219 217 219 220 213 219 211 216 225 230 232 235 221 227 203 222 224 224 220 219 214
333 333 331 320 314 276 266 229 192 195 191 198 198 202 202 206 208 206 215 216 213 212 218 219 221 216 218 222 218 222 217 220 225 225 231 234 218 236 214 223 230 225 222 220 215
346 343 338 336 330 335 279 185 181 177 211 212 209 206 199 199 206 205 206 207 214 212 217 222 221 225 222 221 223 216 212 224 223 226 225 223 229 229 232 242 235 223 216 217 210
360 7 9 10 2 343 91 155 142 191 195 202 200 181 184 199 203 205 199 205 222 215 212 213 221 226 237 221 220 223 213 213 218 216 218 221 223 219 245 258 246 231 226 219 211
4 15 26 25 33 54 112 112 158 185 197 200 183 173 201 205 193 191 195 210 221 223 207 212 215 221 215 213 220 225 221 224 213 227 221 224 233 225 269 290 270 238 222 218 215
11 25 21 8 56 71 94 113 139 147 197 174 182 198 187 218 198 204 215 229 223 221 214 214 212 220 230 225 226 213 227 222 228 217 220 231 213 248 267 272 273 260 236 226 219
14 23 10 28 57 91 94 100 109 328 200 185 196 190 200 210 206 212 226 228 230 235 217 219 217 227 222 232 233 227 230 229 221 224 218 214 225 256 254 253 263 264 260 233 220
8 9 358 13 43 27 349 302 340 307 256 203 198 192 200 206 209 208 209 236 255 231 224 232 213 217 229 232 208 194 223 225 223 239 227 221 221 246 256 255 258 268 269 248 220
0 358 351 341 19 18 4 25 41 8 265 227 232 216 214 216 201 201 212 242 251 230 229 238 230 224 229 230 234 231 243 232 223 226 232 226 228 256 260 261 261 268 273 261 228
354 349 2 24 15 97 36 3 15 26 64 128 220 207 222 228 228 212 223 238 247 240 238 231 236 223 222 228 236 239 244 242 233 231 236 234 244 258 266 266 264 267 270 263 231
17 11 3 356 0 20 356 323 321 312 332 348 260 284 223 215 222 225 240 240 244 271 254 243 230 226 224 231 236 240 243 244 240 238 233 243 248 253 258 258 256 255 259 258 248
20 26 28 30 14 31 7 353 353 306 279 290 238 261 254 228 229 236 236 238 243 261 256 261 239 238 245 247 251 250 250 243 244 241 244 244 243 249 252 252 254 251 250 250 250
26 31 28 21 35 41 17 20 349 307 332 274 269 250 251 246 243 244 245 248 248 253 259 253 246 248 250 258 266 261 255 248 250 252 246 242 242 247 248 249 247 247 245 247 249